Location: Auckland
(36.8670°S, 174.7670°E)
Time: 07:50:24
(UTC+12:00)

A-11 Canister half - Pass Details

Date: 21 July 2019
Orbit: 1526 x 1682 km, 47.3° (Epoch: 24 August)

Event Time Altitude Azimuth Distance (km) Brightness Sun altitude
Rises 09:23:48 0° 295° (WNW) 4,685 11.3 18.1°
Reaches altitude 10° 09:26:50 10° 293° (WNW) 3,716 10.9 18.5°
Maximum altitude 09:36:14 72° 208° (SSW) 1,641 9.3 19.8°
Drops below altitude 10° 09:46:00 10° 123° (ESE) 3,843 11.3 21.1°
Sets 09:49:12 0° 121° (ESE) 4,851 11.7 21.5°
